CW4859 Weather Reports


time (UTC)temp
F
wind
direction
speed
knots
gust
knots
rain 1hr
in
rain 24hr
in
rain mn
in
humidity
%
barometer
mb
20260506201959 68 183 10.4 15.6 0.00 0.01 0.00 77 1004.5
20260506201459 67 186 6.1 13.9 0.00 0.01 0.00 77 1004.6
20260506200959 67 188 6.1 10.4 0.00 0.01 0.00 77 1004.6
20260506200459 67 136 7.0 7.0 0.00 0.01 0.00 78 1004.6
20260506195959 67 172 5.2 11.3 0.00 0.01 0.00 78 1005.0
20260506195459 67 181 5.2 9.6 0.00 0.01 0.00 78 1005.0
20260506195002 67 196 2.6 10.4 0.00 0.01 0.00 78 1005.0
20260506194459 67 204 6.1 10.4 0.00 0.01 0.00 78 1005.1
20260506193959 67 176 4.3 9.6 0.00 0.01 0.00 78 1005.1
20260506193502 67 194 4.3 8.7 0.00 0.01 0.00 78 1005.1
20260506192959 67 173 4.3 14.8 0.00 0.01 0.00 78 1005.1
20260506192459 67 193 6.1 9.6 0.00 0.01 0.00 78 1005.1
20260506191959 67 169 1.7 10.4 0.00 0.01 0.00 77 1005.1
20260506191459 67 167 4.3 13.9 0.00 0.01 0.00 77 1005.2
20260506190959 67 204 6.1 17.4 0.00 0.01 0.00 76 1005.2
20260506190459 67 145 2.6 17.4 0.00 0.01 0.00 76 1005.2
20260506185959 68 164 10.4 15.6 0.00 0.01 0.00 75 1005.2
20260506185459 68 192 6.1 9.6 0.00 0.01 0.00 75 1005.2
20260506184959 68 144 2.6 11.3 0.00 0.01 0.00 75 1005.2
20260506184459 68 192 3.5 9.6 0.00 0.01 0.00 75 1005.2
20260506183959 68 186 4.3 9.6 0.00 0.01 0.00 74 1005.2
20260506183459 68 163 2.6 20.9 0.00 0.01 0.00 74 1005.2
20260506182959 68 159 7.0 14.8 0.00 0.01 0.00 74 1005.4
20260506182459 68 151 6.1 20.0 0.00 0.01 0.00 75 1005.4
20260506181959 68 161 7.8 10.4 0.00 0.01 0.00 75 1005.4
20260506181459 68 211 5.2 12.2 0.00 0.01 0.00 75 1005.6
20260506180959 68 188 5.2 15.6 0.00 0.01 0.00 75 1005.6
20260506180459 68 167 2.6 12.2 0.00 0.01 0.00 75 1005.6
20260506175959 68 184 6.1 7.8 0.00 0.01 0.00 75 1005.7
20260506175502 68 155 3.5 9.6 0.00 0.01 0.00 75 1005.7
20260506175002 69 180 5.2 16.5 0.00 0.01 0.00 74 1005.7
20260506174459 69 197 4.3 7.0 0.00 0.01 0.00 74 1005.6
20260506173959 69 188 3.5 19.1 0.00 0.01 0.00 73 1005.6
20260506173459 69 182 9.6 15.6 0.00 0.01 0.00 75 1005.6
20260506172959 69 173 11.3 13.0 0.00 0.01 0.00 75 1005.4
20260506172459 69 170 3.5 7.0 0.00 0.01 0.00 77 1005.4
20260506171959 69 147 6.1 12.2 0.00 0.01 0.00 76 1005.4
20260506171459 69 136 6.1 8.7 0.00 0.01 0.00 78 1005.7
20260506170959 68 191 3.5 6.1 0.00 0.01 0.00 82 1005.7
20260506170459 68 169 1.7 5.2 0.00 0.01 0.00 81 1005.7
20260506165959 67 129 0.9 3.5 0.00 0.01 0.00 80 1006.2
20260506165459 67 175 3.5 5.2 0.00 0.01 0.00 80 1006.2
20260506164959 67 182 1.7 7.8 0.00 0.00 0.00 80 1006.2
20260506164459 67 137 0.9 4.3 0.00 0.00 0.00 79 1006.8
20260506163959 67 177 1.7 6.1 0.00 0.00 0.00 79 1006.8
20260506163459 67 164 1.7 4.3 0.00 0.00 0.00 78 1006.8
20260506162959 67 190 2.6 5.2 0.00 0.00 0.00 78 1007.2
20260506162459 67 167 0.9 7.0 0.00 0.00 0.00 77 1007.2
20260506161959 67 151 2.6 6.1 0.00 0.00 0.00 77 1007.2
20260506161459 68 192 0.9 6.1 0.00 0.00 0.00 75 1007.3
20260506160959 68 145 1.7 3.5 0.00 0.00 0.00 75 1007.3
20260506160459 68 163 3.5 4.3 0.00 0.00 0.00 75 1007.3
20260506155959 68 153 0.9 6.1 0.00 0.00 0.00 73 1007.2
20260506155501 69 183 0.9 6.1 0.00 0.00 0.00 72 1007.2
20260506154959 69 206 2.6 10.4 0.00 0.00 0.00 70 1007.2
20260506154459 70 158 2.6 9.6 0.00 0.00 0.00 68 1007.1
20260506153959 70 159 3.5 14.8 0.00 0.00 0.00 64 1007.1
20260506153503 71 167 3.5 19.1 0.00 0.00 0.00 64 1007.1
20260506152958 71 161 6.1 19.1 0.00 0.00 0.00 62 1007.1
20260506152459 71 176 7.0 12.2 0.00 0.00 0.00 62 1007.1
20260506151959 71 186 6.1 12.2 0.00 0.00 0.00 64 1007.1
20260506151458 71 161 9.6 15.6 0.00 0.00 0.00 63 1007.2
20260506150959 71 186 6.1 16.5 0.00 0.00 0.00 63 1007.2
20260506150459 71 171 5.2 6.1 0.00 0.00 0.00 63 1007.2
20260506145958 71 168 7.8 10.4 0.00 0.00 0.00 63 1007.2
20260506145459 71 124 2.6 9.6 0.00 0.00 0.00 63 1007.2
20260506144958 71 184 7.0 10.4 0.00 0.00 0.00 62 1007.2
20260506144458 71 157 5.2 13.9 0.00 0.00 0.00 62 1007.2
20260506143958 71 226 6.1 13.9 0.00 0.00 0.00 62 1007.2
20260506143458 71 172 3.5 10.4 0.00 0.00 0.00 62 1007.2
20260506142959 71 211 4.3 10.4 0.00 0.00 0.00 62 1007.2
20260506142501 71 254 7.8 9.6 0.00 0.00 0.00 62 1007.2
20260506141958 71 245 8.7 9.6 0.00 0.00 0.00 63 1007.2
20260506141458 71 166 6.1 14.8 0.00 0.00 0.00 63 1007.2
20260506141001 71 170 8.7 8.7 0.00 0.00 0.00 64 1007.2
20260506140458 71 185 2.6 14.8 0.00 0.00 0.00 63 1007.2
20260506135958 71 176 7.8 13.0 0.00 0.00 0.00 63 1007.1
20260506135458 71 211 6.1 13.9 0.00 0.00 0.00 63 1007.1
20260506134958 71 184 8.7 17.4 0.00 0.00 0.00 63 1007.1
20260506134458 71 166 10.4 13.9 0.00 0.00 0.00 64 1007.2
20260506133958 71 184 7.8 10.4 0.00 0.00 0.00 64 1007.2
20260506133501 71 178 6.1 15.6 0.00 0.00 0.00 63 1007.2
20260506132958 71 149 3.5 15.6 0.00 0.00 0.00 63 1007.3
20260506132458 71 205 1.7 11.3 0.00 0.00 0.00 63 1007.3
20260506131958 71 184 7.0 11.3 0.00 0.00 0.00 63 1007.3
20260506131458 71 136 2.6 10.4 0.00 0.00 0.00 64 1007.3
20260506130958 71 161 7.8 14.8 0.00 0.00 0.00 65 1007.3
20260506130458 70 189 4.3 12.2 0.00 0.00 0.00 66 1007.3
20260506125958 70 180 6.1 18.2 0.00 0.00 0.00 67 1007.2
20260506125458 70 156 5.2 18.2 0.00 0.00 0.00 66 1007.2
20260506125001 70 181 12.2 12.2 0.00 0.00 0.00 68 1007.2
20260506124458 69 138 1.7 7.0 0.00 0.00 0.00 69 1007.1
20260506123958 69 139 4.3 8.7 0.00 0.00 0.00 69 1007.1
20260506123458 68 184 2.6 11.3 0.00 0.00 0.00 69 1007.1
20260506122958 68 144 5.2 5.2 0.00 0.00 0.00 71 1007.4
20260506122458 67 163 2.6 15.6 0.00 0.00 0.00 70 1007.4
20260506121958 67 209 3.5 7.8 0.00 0.00 0.00 70 1007.4
20260506121458 67 164 2.6 7.8 0.00 0.00 0.00 71 1007.4
20260506120958 67 159 3.5 7.0 0.00 0.00 0.00 71 1007.4
20260506120458 67 165 3.5 8.7 0.00 0.00 0.00 71 1007.4
20260506115958 67 180 1.7 10.4 0.00 0.00 0.00 71 1007.6
20260506115458 67 169 2.6 7.0 0.00 0.00 0.00 71 1007.6
20260506114958 67 176 3.5 9.6 0.00 0.00 0.00 72 1007.6
20260506114458 67 194 4.3 7.8 0.00 0.00 0.00 72 1007.6
20260506113958 66 186 2.6 7.8 0.00 0.00 0.00 72 1007.6
20260506113502 66 181 3.5 13.0 0.00 0.00 0.00 72 1007.6
20260506112958 66 152 4.3 10.4 0.00 0.00 0.00 73 1007.6
20260506112458 66 138 0.9 9.6 0.00 0.00 0.00 73 1007.6
20260506111958 66 155 4.3 8.7 0.00 0.00 0.00 75 1007.6
20260506111501 65 185 5.2 10.4 0.00 0.00 0.00 75 1007.6
20260506110958 65 163 1.7 8.7 0.00 0.00 0.00 75 1007.6
20260506110458 65 182 3.5 7.8 0.00 0.00 0.00 76 1007.6
20260506110001 65 179 5.2 9.6 0.00 0.00 0.00 76 1007.3
20260506105458 65 175 2.6 9.6 0.00 0.00 0.00 76 1007.3
20260506105001 65 121 1.7 6.1 0.00 0.00 0.00 77 1007.3
20260506104458 65 214 3.5 4.3 0.00 0.00 0.00 77 1007.3
20260506103958 64 134 4.3 4.3 0.00 0.00 0.00 77 1007.3
20260506103458 64 182 3.5 7.0 0.00 0.00 0.00 77 1007.3
20260506103001 64 161 2.6 4.3 0.00 0.00 0.00 77 1007.4
20260506102458 64 138 3.5 8.7 0.00 0.00 0.00 77 1007.4
20260506102001 64 180 2.6 7.8 0.00 0.00 0.00 77 1007.4
20260506101458 64 168 0.9 6.1 0.00 0.00 0.00 77 1007.4
20260506101001 64 236 4.3 9.6 0.00 0.00 0.00 77 1007.4
20260506100458 64 173 6.1 7.8 0.00 0.00 0.00 77 1007.4
20260506095958 65 160 1.7 4.3 0.00 0.00 0.00 77 1007.2
20260506095458 65 142 2.6 6.1 0.00 0.00 0.00 77 1007.2
20260506095001 65 131 3.5 5.2 0.00 0.00 0.00 77 1007.2
20260506094458 65 142 4.3 8.7 0.00 0.00 0.00 77 1007.2
20260506093958 65 172 3.5 14.8 0.00 0.00 0.00 77 1007.2
20260506093458 65 144 3.5 14.8 0.00 0.00 0.00 77 1007.2
20260506092958 65 143 4.3 7.0 0.00 0.00 0.00 77 1007.2
20260506092458 65 142 4.3 7.0 0.00 0.00 0.00 77 1007.2
20260506091958 65 157 0.9 5.2 0.00 0.00 0.00 76 1007.3
20260506091458 65 122 2.6 7.0 0.00 0.00 0.00 77 1007.3
20260506090958 65 173 3.5 8.7 0.00 0.00 0.00 76 1007.3
20260506090501 65 171 3.5 4.3 0.00 0.00 0.00 76 1007.3
20260506085958 65 159 2.6 5.2 0.00 0.00 0.00 76 1007.6
20260506085501 65 142 2.6 8.7 0.00 0.00 0.00 76 1007.6
20260506084958 65 158 3.5 5.2 0.00 0.00 0.00 76 1007.6
20260506084501 66 180 1.7 7.0 0.00 0.00 0.00 76 1007.5
20260506084001 66 165 1.7 7.8 0.00 0.00 0.00 76 1007.5
20260506083458 66 131 2.6 13.0 0.00 0.00 0.00 76 1007.5
20260506082958 66 167 2.6 5.2 0.00 0.00 0.00 76 1007.6
20260506082458 66 159 3.5 6.1 0.00 0.00 0.00 75 1007.6
20260506081958 66 160 2.6 7.0 0.00 0.00 0.00 75 1007.6
20260506081458 66 161 4.3 6.1 0.00 0.00 0.00 75 1007.5
20260506081001 66 137 1.7 6.1 0.00 0.00 0.00 75 1007.5
20260506080458 66 127 2.6 7.8 0.00 0.00 0.00 75 1007.5
20260506073458 67 158 2.6 8.7 0.00 0.00 0.00 74 1007.6
20260506072958 67 177 1.7 11.3 0.00 0.00 0.00 74 1007.7
20260506072458 67 150 4.3 5.2 0.00 0.00 0.00 73 1007.7
20260506071958 67 172 3.5 11.3 0.00 0.00 0.00 73 1007.7
20260506071457 67 159 1.7 7.8 0.00 0.00 0.00 73 1007.8
20260506070958 67 153 2.6 7.8 0.00 0.00 0.00 73 1007.8
20260506070458 67 184 3.5 7.8 0.00 0.00 0.00 73 1007.8
20260506062457 68 166 1.7 6.1 0.00 0.00 0.00 71 1007.8
20260506061957 68 144 2.6 7.0 0.00 0.00 0.00 71 1007.8
20260506061457 68 146 2.6 8.7 0.00 0.00 0.00 71 1007.7
20260506060957 68 144 3.5 9.6 0.00 0.00 0.00 71 1007.7
20260506060457 68 199 4.3 6.1 0.00 0.00 0.00 70 1007.7
20260506050957 69 148 0.9 2.6 0.00 0.00 0.00 68 1008.5
20260506050457 69 187 0.9 5.2 0.00 0.00 0.00 67 1008.5
20260506044957 69 180 3.5 6.1 0.00 0.00 0.00 66 1008.5
20260506044457 69 181 0.9 7.0 0.00 0.00 0.00 66 1008.5
20260506043957 69 151 0.9 7.0 0.00 0.00 0.00 66 1008.5
20260506043457 69 140 3.5 6.1 0.00 0.00 0.00 65 1008.5
20260506042957 69 164 1.7 7.8 0.00 0.00 0.00 65 1008.3
20260506042457 70 196 4.3 6.1 0.00 0.00 0.00 65 1008.3
20260506041957 70 205 2.6 5.2 0.00 0.00 0.00 64 1008.3
20260506041457 70 172 1.7 8.7 0.00 0.00 0.00 64 1008.3
20260506040957 70 180 3.5 10.4 0.00 0.00 0.00 64 1008.3
20260506040457 70 209 7.0 9.6 0.00 0.00 0.00 64 1008.3
20260506035957 70 196 7.0 9.6 0.00 0.00 0.00 64 1008.3
20260506035457 70 201 2.6 4.3 0.00 0.00 0.00 63 1008.3
20260506034957 70 159 1.7 3.5 0.00 0.00 0.00 63 1008.3
20260506034457 70 188 2.6 6.1 0.00 0.00 0.00 62 1008.3
20260506033957 70 189 5.2 7.0 0.00 0.00 0.00 62 1008.3
20260506033457 70 176 1.7 11.3 0.00 0.00 0.00 62 1008.3
20260506032957 70 145 3.5 6.1 0.00 0.00 0.00 62 1008.3
20260506032457 70 157 2.6 10.4 0.00 0.00 0.00 61 1008.3
20260506031957 71 171 8.7 10.4 0.00 0.00 0.00 61 1008.3
20260506031457 71 158 7.8 8.7 0.00 0.00 0.00 61 1008.3
20260506031000 71 132 4.3 5.2 0.00 0.00 0.00 60 1008.3
20260506030457 71 194 4.3 9.6 0.00 0.00 0.00 60 1008.3
20260506025957 71 144 2.6 11.3 0.00 0.00 0.00 60 1008.3
20260506025457 71 169 3.5 7.8 0.00 0.00 0.00 59 1008.3
20260506024957 71 171 3.5 5.2 0.00 0.00 0.00 59 1008.3
20260506024457 71 183 2.6 7.0 0.00 0.00 0.00 58 1008.3
20260506023957 71 162 5.2 6.1 0.00 0.00 0.00 58 1008.3
20260506023457 71 157 2.6 9.6 0.00 0.00 0.00 58 1008.3
20260506022957 71 165 3.5 9.6 0.00 0.00 0.00 57 1008.3
20260506022500 72 199 1.7 6.1 0.00 0.00 0.00 57 1008.3
20260506022000 72 156 1.7 7.0 0.00 0.00 0.00 57 1008.3
20260506021500 72 169 0.9 12.2 0.00 0.00 0.00 56 1008.3
20260506020957 72 182 3.5 7.0 0.00 0.00 0.00 56 1008.3
20260506020457 72 208 4.3 8.7 0.00 0.00 0.00 56 1008.3
20260506015957 72 157 3.5 5.2 0.00 0.00 0.00 56 1008.2
20260506015457 72 163 1.7 12.2 0.00 0.00 0.00 56 1008.2
20260506014957 72 159 0.9 6.1 0.00 0.00 0.00 56 1008.2
20260506014500 73 157 0.0 7.8 0.00 0.00 0.00 56 1008.1
20260506013957 73 165 1.7 7.0 0.00 0.00 0.00 55 1008.1
20260506013500 73 153 3.5 5.2 0.00 0.00 0.00 55 1008.1
20260506012957 73 167 5.2 8.7 0.00 0.00 0.00 55 1007.8
20260506012500 73 148 1.7 6.1 0.00 0.00 0.00 54 1007.8
20260506012000 74 146 1.7 4.3 0.00 0.00 0.00 54 1007.8
20260506011457 74 141 2.6 7.8 0.00 0.00 0.00 53 1007.8
20260506010957 74 129 2.6 9.6 0.00 0.00 0.00 53 1007.8
20260506010457 74 155 3.5 11.3 0.00 0.00 0.00 52 1007.8
20260506005957 75 202 5.2 9.6 0.00 0.00 0.00 51 1007.7
20260506005457 75 162 1.7 6.1 0.00 0.00 0.00 50 1007.7
20260506004957 75 174 3.5 7.0 0.00 0.00 0.00 50 1007.7
20260506004500 75 126 1.7 8.7 0.00 0.00 0.00 49 1007.6
20260506003957 76 200 2.6 10.4 0.00 0.00 0.00 48 1007.6
20260506003457 76 182 5.2 10.4 0.00 0.00 0.00 48 1007.6
20260506002957 76 150 2.6 7.8 0.00 0.00 0.00 46 1007.3
20260506002457 77 187 2.6 7.8 0.00 0.00 0.00 45 1007.3
20260506001957 77 171 3.5 9.6 0.00 0.00 0.00 44 1007.3
20260506001457 77 157 1.7 8.7 0.00 0.00 0.00 43 1007.1
20260506000957 78 204 5.2 13.0 0.00 0.00 0.00 42 1007.1
20260506000457 78 146 2.6 10.4 0.00 0.00 0.00 41 1007.1
20260505235957 78 167 2.6 5.2 0.00 0.00 0.00 41 1006.9
20260505235457 79 147 1.7 8.7 0.00 0.00 0.00 39 1006.9
20260505235000 79 188 4.3 8.7 0.00 0.00 0.00 40 1006.9
20260505234457 79 167 2.6 7.8 0.00 0.00 0.00 39 1006.7
20260505234000 79 162 4.3 12.2 0.00 0.00 0.00 39 1006.7
20260505233457 80 177 3.5 13.9 0.00 0.00 0.00 38 1006.7
20260505233000 80 171 7.8 13.0 0.00 0.00 0.00 38 1006.7
20260505232457 80 188 5.2 15.6 0.00 0.00 0.00 38 1006.7
20260505231957 80 168 1.7 10.4 0.00 0.00 0.00 38 1006.7
20260505231457 81 145 4.3 12.2 0.00 0.00 0.00 37 1006.5
20260505230957 81 186 6.1 15.6 0.00 0.00 0.00 37 1006.5
20260505230459 81 176 5.2 10.4 0.00 0.00 0.00 37 1006.5
20260505225957 81 153 3.5 13.9 0.00 0.00 0.00 36 1006.2
20260505225457 82 175 5.2 15.6 0.00 0.00 0.00 36 1006.2
20260505224957 82 180 6.1 16.5 0.00 0.00 0.00 35 1006.2
20260505224457 82 196 4.3 15.6 0.00 0.00 0.00 34 1006.1
20260505223957 82 203 6.1 18.2 0.00 0.00 0.00 34 1006.1
20260505223457 82 205 6.1 20.9 0.00 0.00 0.00 34 1006.1
20260505222956 83 180 5.2 12.2 0.00 0.00 0.00 33 1006.3
20260505222456 83 225 1.7 10.4 0.00 0.00 0.00 31 1006.3
20260505221956 83 186 6.1 15.6 0.00 0.00 0.00 30 1006.3
20260505221457 83 260 1.7 9.6 0.00 0.00 0.00 30 1006.0
20260505220957 83 200 9.6 15.6 0.00 0.00 0.00 29 1006.0
20260505220456 83 186 3.5 16.5 0.00 0.00 0.00 30 1006.0
20260505215956 83 186 13.0 19.1 0.00 0.00 0.00 29 1005.7
20260505215457 83 192 13.0 15.6 0.00 0.00 0.00 29 1005.7
20260505214956 83 243 4.3 10.4 0.00 0.00 0.00 29 1005.7
20260505214456 84 188 5.2 10.4 0.00 0.00 0.00 28 1005.7
20260505213956 84 193 4.3 16.5 0.00 0.00 0.00 27 1005.7
20260505213456 84 202 15.6 19.1 0.00 0.00 0.00 27 1005.7
20260505212956 84 199 13.9 20.9 0.00 0.00 0.00 27 1005.7
20260505212456 84 128 5.2 15.6 0.00 0.00 0.00 27 1005.7
20260505211956 84 171 7.0 13.9 0.00 0.00 0.00 27 1005.7
20260505211456 84 203 12.2 13.0 0.00 0.00 0.00 28 1005.7
20260505210959 84 124 5.2 18.2 0.00 0.00 0.00 28 1005.7
20260505210456 84 194 7.0 17.4 0.00 0.00 0.00 29 1005.7
20260505205956 84 188 12.2 17.4 0.00 0.00 0.00 30 1005.5
20260505205456 84 180 7.8 14.8 0.00 0.00 0.00 34 1005.5
20260505204956 84 196 6.1 14.8 0.00 0.00 0.00 32 1005.5
20260505204456 85 150 3.5 13.0 0.00 0.00 0.00 35 1005.5
20260505203956 85 169 6.1 14.8 0.00 0.00 0.00 34 1005.5
20260505203456 85 163 9.6 19.1 0.00 0.00 0.00 33 1005.5
20260505202956 84 167 6.1 10.4 0.00 0.00 0.00 31 1005.5
20260505202456 84 179 2.6 17.4 0.00 0.00 0.00 32 1005.5